Home   Weather   Stans   Past weeks

Flag for Switzerland Past Weather in Stans, Nidwalden, Switzerland — Yesterday and Last 2 Weeks

Now
22 °F

Cold.


Feels Like: 22 °F
Forecast: 32 / 51 °F
Wind: 2 mph from Southwest

Location: Giswil

Current Time: Dec 9, 2016 at 4:49:41 am

Latest Report: Dec 9, 2016 at 4:00 am


Visibility: N/A

Pressure: 30.66 "Hg

Humidity: 99%

Dew Point: 22 °F

Location of StansLocation

Past Weather in Stans — Graph

°F

Stans Temperature Yesterday

Maximum temperature yesterday: 33 °F (at 3:00 pm)
Minimum temperature yesterday: 23 °F (at 9:00 am)
Average temperature yesterday: 27 °F

High & Low Weather Summary for the Past Weeks

 TemperatureHumidityPressure
High56 °F (Nov 24, 7:00 am)100% (Nov 24, 4:00 am)30.73 "Hg (Nov 24, 4:00 am)
Low21 °F (Dec 3, 6:00 am)51% (Nov 24, 7:00 am)29.84 "Hg (Nov 24, 7:00 am)
Average34 °F93%30.31 "Hg
* Reported Nov 24 2:00 am — Dec 9 2:00 am, Stans, Weather by CustomWeather, © 2016

Note: Actual official high and low records may vary slightly from our data, if they occured in-between our weather recording intervals... More about our weather records

Advertising

Stans Weather History for the Previous 24 Hours

Scroll right to see more
 ConditionsComfort  
Time TempWeatherWind HumidityBarometerVisibility
2:00 am
Fri, Dec 9
23 °FCold.2 mph99%30.67 "HgN/A
1:00 am23 °FCold.3 mph99%30.67 "HgN/A
12:00 am25 °FChilly.2 mph100%30.66 "HgN/A
11:00 pm
Thu, Dec 8
26 °FChilly.2 mph99%30.66 "HgN/A
10:00 pm26 °FChilly.2 mph99%30.64 "HgN/A
8:00 pm27 °FChilly.1 mph99%30.66 "HgN/A
7:00 pm27 °FChilly.2 mph99%30.64 "HgN/A
6:00 pm28 °FChilly.No wind99%30.63 "HgN/A
5:00 pm30 °FChilly.1 mph99%30.63 "HgN/A
4:00 pm32 °FChilly.1 mph99%30.61 "HgN/A
3:00 pm33 °FChilly.3 mph99%30.60 "HgN/A
2:00 pm32 °FChilly.1 mph99%30.63 "HgN/A
1:00 pm32 °FChilly.1 mph100%30.66 "HgN/A
12:00 pm29 °FChilly.1 mph99%30.67 "HgN/A
11:00 am26 °FChilly.1 mph99%30.72 "HgN/A
10:00 am24 °FCold.2 mph99%30.73 "HgN/A
9:00 am23 °FCold.No wind100%30.72 "HgN/A
8:00 am24 °FCold.2 mph100%30.73 "HgN/A
7:00 am24 °FCold.1 mph99%30.72 "HgN/A
6:00 am25 °FChilly.1 mph99%30.71 "HgN/A
5:00 am24 °FCold.2 mph100%30.71 "HgN/A
4:00 am24 °FCold.1 mph99%30.70 "HgN/A
Weather by CustomWeather, © 2016

See weather overviewHow to use our weather pages